Regional Weather Roundup
Issued by NWS

Home | Current Version | Previous Version | Graphics & Text | Print | Product List | Glossary On
Versions: 1 2 3 4 5 6 7 8 9 10 11 12 13 14 15 16 17 18 19 20 21 22 23 24 25 26 27 28 29 30 31 32 33 34 35 36 37 38 39 40 41 42 43 44 45 46 47 48 49 50
000
ASUS43 KMPX 232001
RWRMN
WEATHER ROUNDUP FOR MINNESOTA
NATIONAL WEATHER SERVICE TWIN CITIES/CHANHASSEN MN
300 PM CDT MON OCT 23 2017


NOTE: "FAIR" INDICATES FEW OR NO CLOUDS BELOW 12,000 FEET WITH NO
SIGNIFICANT WEATHER AND/OR OBSTRUCTIONS TO VISIBILITY. N/A MEANS
CURRENT SKY AND/OR WEATHER CONDITIONS ARE NOT AVAILABLE.

MNZ060>063-068>070-232100-
   Twin Cities Metro

CITY           SKY/WX    TMP DP  RH WIND       PRES   REMARKS
TWIN CITIES    MOSUNNY   56  41  57 NW21G26   29.78S
ST PAUL        CLOUDY    55  40  56 NW18G29   29.78S
CRYSTAL        PTSUNNY   55  36  48 NW18G28   29.78R
BLAINE         MOSUNNY   55  39  54 NW21      29.77S
LAKEVILLE      PTSUNNY   54  39  58 W21G26    29.78F
EDEN PRAIRIE   PTSUNNY   54  38  54 NW21G32   29.79S
SOUTH ST PAUL  PTSUNNY   58  38  47 W22       29.76S
LAKE ELMO      CLOUDY    55  39  54 NW20G25   29.76S
$$
MNZ001>005-007-008-013>017-022>024-027-028-232100-
   Northwest Minnesota

CITY           SKY/WX    TMP DP  RH WIND       PRES   REMARKS
BEMIDJI        CLOUDY    47  26  45 NW22G32   29.87R
HALLOCK        SUNNY     50  28  43 NW24G31   29.95R
ROSEAU         SUNNY     46  32  57 NW18G24   29.90R
WARROAD        MOSUNNY   46  32  57 NW17G28   29.89R
CROOKSTON      MOSUNNY   50  36  57 N21G26    29.93S
FOSSTON        MOSUNNY   46  36  66 NW22G28   29.92R
DETROIT LAKES  SUNNY     50  34  53 NW25G31   29.92S
MOORHEAD       SUNNY     55  27  33 NW25G36   29.93R
PARK RAPIDS    CLOUDY    48  29  47 NW17G29   29.87R
MAHNOMEN       FAIR      49  33  53 NW21      29.92R
$$
MNZ006-009>011-018-025>026-232100-
   North Central Minnesota

CITY           SKY/WX    TMP DP  RH WIND       PRES   REMARKS
BAUDETTE       CLOUDY    45  36  70 NW22G31   29.85R
FLAG ISLAND    CLOUDY    45  34  65 NW20      29.86R
INTL FALLS     CLOUDY    46  40  79 NW20      29.80R
WASKISH        CLOUDY    46  36  66 NW14G22   29.86R
BIG FORK       DRIZZLE   45  43  93 NW10G20   29.80R
LONGVILLE      HVY RAIN  43  39  87 NW7G16    29.84R
GRAND RAPIDS   CLOUDY    46  41  82 NW18      29.81R
CRANE LAKE     CLOUDY    46  45  93 NW5       29.76R
ORR            CLOUDY    46  43  87 NW7       29.73R
COOK           CLOUDY    48  43  81 W10G17    29.75R
WALKER         CLOUDY    43  32  65 NW15      29.86R
$$
MNZ012-019>021-037-232100-
   Northeast Minnesota

CITY           SKY/WX    TMP DP  RH WIND       PRES   REMARKS
DULUTH         MOSUNNY   57  42  57 NW20G30   29.69S
ELY            PTSUNNY   55  41  58 W16       29.69R
HIBBING        CLOUDY    48  41  76 NW10      29.75R
EVELETH        CLOUDY    51  39  63 NW16G22   29.75R
DULUTH HARBOR  MOSUNNY   61  46  59 W18       29.69R
TWO HARBORS    MOSUNNY   64  46  52 W9        29.65S
SILVER BAY     MOSUNNY   64  43  45 W10       29.64S
GRAND MARAIS     N/A     52  44  74 W6        29.67R
G MARAIS ARPRT PTSUNNY   57  37  47 S8        29.68R
$$
MNZ029>031-032-039>041-046>048-054>057-064-232100-
   West Central Minnesota

CITY           SKY/WX    TMP DP  RH WIND       PRES   REMARKS
FERGUS FALLS   MOSUNNY   54  32  43 N23G32    29.93S
WHEATON        SUNNY     55  25  30 NW26G35   29.96S
MORRIS         MOSUNNY   54  34  47 NW28G35   29.93R
ALEXANDRIA     MOSUNNY   50  30  46 NW18G33   29.91R
ELBOW LAKE     PTSUNNY   51  34  53 NW21G32   29.93S
WADENA         PTSUNNY   48  25  40 NW18G29   29.88R
GLENWOOD       MOSUNNY   48  32  53 NW23G35   29.91R
APPLETON       MOSUNNY   55  28  35 NW23G32   29.94R
BENSON         MOSUNNY   52  32  46 N26G36    29.95R
ORTONVILLE     MOSUNNY   55  27  33 NW26G37   29.94F
MADISON        CLOUDY    55  34  44 N23       29.96R
WILLMAR        CLOUDY    48  37  66 NW21G36   29.93R
$$
MNZ033>034-036-042>043-049>051-058-059-232100-
   Central Minnesota

CITY           SKY/WX    TMP DP  RH WIND       PRES   REMARKS
ST CLOUD       CLOUDY    48  40  73 NW23G30   29.83S
SAUK CENTRE    CLOUDY    47  30  50 NW21G26   29.89R
PAYNESVILLE    CLOUDY    49  36  60 NW22G31   29.89R
AITKIN         CLOUDY    46  39  76 NW12G20   29.80R
PINE RIVER     CLOUDY    43  34  70 NW10G20   29.89R
BRAINERD       CLOUDY    48  38  68 NW20G36   29.84R
STAPLES        CLOUDY    46  32  57 NW20      29.88R
LONG PRAIRIE   CLOUDY    45  32  61 W20G26    29.89R
LITTLE FALLS   CLOUDY    46  30  53 NW12G21   29.85S
LITCHFIELD     CLOUDY    48  43  81 NW16G24   29.87F
BUFFALO        CLOUDY    49  40  71 W15G23    29.84R
MAPLE LAKE     CLOUDY    49  43  79 NW16G22   29.84S
HUTCHINSON     CLOUDY    47  44  87 NW13G25   29.87F
$$
MNZ037-044-045-052-053-232100-
   East Central Minnesota

CITY           SKY/WX    TMP DP  RH WIND       PRES   REMARKS
PRINCETON      CLOUDY    52  43  71 W20G25    29.80S
MORA           CLOUDY    50  37  62 NW17G24   29.79S
CAMBRIDGE      PTSUNNY   55  41  58 NW14G20   29.78S
RUSH CITY      MOSUNNY   57  40  53 W15G23    29.74F
MOOSE LAKE     PTSUNNY   54  39  58 NW14G23   29.73R
HINCKLEY       CLOUDY    54  41  62 NW10G22   29.75S
CLOQUET        PTSUNNY   55  37  50 W20G26    29.72R
MCGREGOR       CLOUDY    48  41  76 NW13G20   29.79R
$$
MNZ071>073-080-081-089-090-097-098-232100-
   Southwest Minnesota

CITY           SKY/WX    TMP DP  RH WIND       PRES   REMARKS
MONTEVIDEO     PTSUNNY   54  32  43 N30G38    29.94S
GRANITE FALLS  CLOUDY    51  38  61 NW15G25   29.96R
CANBY          PTSUNNY   54  30  39 NW20G35   29.98S
MARSHALL       CLOUDY    50  36  58 N23G35    29.95S
REDWOOD FALLS  CLOUDY    50  35  56 NW20G35   29.92R
OLIVIA         CLOUDY    50  36  57 NW28G38   29.90R
PIPESTONE      CLOUDY    50  32  50 N18G31    29.98R
WORTHINGTON    CLOUDY    48  37  65 NW26G33   29.96R
JACKSON        CLOUDY    48  36  61 NW29G39   29.93R
TRACY          CLOUDY    49  37  63 NW18G29   29.96R
SLAYTON        CLOUDY    47  36  65 NW24G30   29.97R
$$
MNZ065>067-074>077-082>085-091>093-232100-
   South Central Minnesota

CITY           SKY/WX    TMP DP  RH WIND       PRES   REMARKS
NEW ULM          N/A     48  39  71 NW23G30   29.88F
ST JAMES       CLOUDY    48  39  71 NW21G30   29.91R
FAIRMONT       CLOUDY    51  38  60 NW26G36   29.89R
GLENCOE        CLOUDY    49  42  75 W21G26    29.85S
FARIBAULT      MOSUNNY   54  39  58 W18G28    29.80F
OWATONNA       PTSUNNY   54  39  58 W23G32    29.80F
WASECA         CLOUDY    52  36  54 W20G32    29.83F
$$
MNZ078>079-086>088-094>096-232100-
   Southeast Minnesota

CITY           SKY/WX    TMP DP  RH WIND       PRES   REMARKS
ROCHESTER      MOSUNNY   57  39  51 W26G36    29.75F
RED WING       MOSUNNY   61  36  39 NW16G25   29.72F
STANTON        CLOUDY    55  40  56 W25       29.76F
DODGE CENTER   MOSUNNY   55  37  50 W21G32    29.76F
WINONA         CLOUDY    54  43  66 CALM      29.74S
AUSTIN         MOSUNNY   57  36  44 W21G32    29.77F
PRESTON        MOSUNNY   58  39  50 NW21G28   29.76S
$$
ABBREVIATIONS USED IN REMARKS
   TC - TEMPERATURES IN CELSIUS
  WCI - WIND CHILL INDEX
   HX - HEAT INDEX
  VSB - VISIBILITY
$$




USA.gov is the U.S. government's official web portal to all federal, state and local government web resources and services.